Location: Peach Mountain Observatory
(42.3967°N, 83.9367°W)
Time: 05:29:56
(UTC-04:00)

deb Explorer IX - Pass Details

Date: 26 January 2020
Orbit: 548 x 1100 km, 38.8° (Epoch: 07 April)

Event Time Altitude Azimuth Distance (km) Brightness Sun altitude
Rises 20:46:28 0° 218° (SW) 3,582 ? -34.1°
Reaches altitude 10° 20:49:16 10° 208° (SSW) 2,719 ? -34.6°
Enters shadow 20:51:01 18° 197° (SSW) 2,261 ? -34.9°
Maximum altitude 20:54:58 30° 149° (SSE) 1,764 - -35.6°
Drops below altitude 10° 21:01:05 10° 92° (E) 2,936 - -36.8°
Sets 21:04:13 0° 82° (E) 3,911 - -37.3°
